GW1554 Weather Reports


time (UTC)temp
F
wind
direction
speed
knots
gust
knots
rain 1hr
in
rain 24hr
in
rain mn
in
humidity
%
barometer
mb
20260506004529 54 71 0.9 4.3 0.02 1.24 0.44 85 1010.2
20260506003013 55 340 4.3 11.3 0.00 1.22 0.43 79 1010.1
20260506001510 54 6 7.8 13.9 0.01 1.22 0.43 83 1010.4
20260506000010 54 56 7.8 13.9 0.06 1.22 0.43 84 1010.5
20260505234509 54 356 7.8 14.8 0.16 1.31 0.43 86 1010.7
20260505233004 53 30 8.7 16.5 0.26 1.31 0.43 88 1011.1
20260505231632 53 356 6.1 12.2 0.33 1.30 0.42 88 1011.8
20260505230100 53 34 2.6 6.1 0.36 1.24 0.36 93 1012.2
20260505224552 54 309 1.7 5.2 0.32 1.17 0.27 95 1012.7
20260505223050 55 280 0.0 2.6 0.21 1.06 0.16 95 1012.6
20260505221559 55 297 0.0 2.6 0.13 0.98 0.08 94 1012.9
20260505220056 56 303 0.9 2.6 0.06 0.90 0.00 92 1012.8
20260505214551 56 39 1.7 7.8 0.00 0.84 0.84 91 1012.6
20260505213042 55 350 1.7 5.2 0.00 0.84 0.84 93 1012.8
20260505211542 55 337 0.0 0.9 0.00 0.84 0.84 93 1013.3
20260505210049 55 285 0.0 0.9 0.00 0.84 0.84 92 1013.4
20260505204551 55 128 0.0 2.6 0.00 0.87 0.84 92 1013.1
20260505203041 55 315 0.0 3.5 0.00 0.87 0.84 93 1013.2
20260505201543 55 352 0.0 0.9 0.00 0.87 0.84 94 1012.9
20260505200040 55 325 0.0 4.3 0.00 0.87 0.84 94 1013.0
20260505194539 55 1 0.0 0.9 0.00 0.92 0.84 95 1013.0
20260505193042 56 359 0.0 1.7 0.00 0.92 0.84 94 1012.9
20260505191538 56 136 0.0 3.5 0.00 0.92 0.84 94 1012.6
20260505190037 57 349 0.0 2.6 0.00 0.92 0.84 94 1012.5
20260505184537 57 39 0.0 0.9 0.00 1.01 0.84 93 1012.8
20260505183047 57 98 0.0 2.6 0.00 1.01 0.84 93 1012.9
20260505181535 58 88 0.9 3.5 0.00 1.01 0.84 92 1012.8
20260505180034 58 244 0.0 1.7 0.00 1.01 0.84 92 1012.5
20260505174535 58 132 0.0 2.6 0.00 1.06 0.84 91 1012.8
20260505173034 59 107 0.9 5.2 0.00 1.06 0.84 91 1012.8
20260505171533 60 219 0.9 2.6 0.00 1.06 0.84 89 1012.9
20260505170032 60 268 0.0 0.0 0.00 1.06 0.84 87 1012.8
20260505164550 61 141 0.0 0.0 0.00 1.08 0.84 86 1012.9
20260505163030 60 105 0.0 3.5 0.00 1.08 0.84 88 1012.8
20260505161535 60 127 0.0 4.3 0.00 1.08 0.84 88 1013.1
20260505153029 61 108 2.6 7.0 0.00 1.08 0.84 88 1013.0
20260505151527 61 116 1.7 7.0 0.00 1.08 0.84 87 1012.9
20260505124518 59 154 3.5 6.1 0.00 1.08 0.84 94 1013.5
20260505123012 59 49 0.0 0.9 0.00 1.08 0.84 95 1013.5
20260505121510 58 95 1.7 3.5 0.00 1.08 0.84 95 1013.3
20260505120009 58 97 2.6 5.2 0.00 1.08 0.84 95 1013.5
20260505114510 58 133 2.6 9.6 0.00 1.08 0.84 95 1013.5
20260505113009 58 146 2.6 5.2 0.00 1.08 0.84 95 1013.5
20260505111510 58 136 3.5 6.1 0.00 1.08 0.84 95 1013.5
20260505101502 57 82 0.9 2.6 0.01 1.08 0.84 95 1013.6
20260505094601 56 35 0.0 0.9 0.09 1.08 0.84 96 1013.9
20260505093106 56 97 0.0 2.6 0.13 1.07 0.83 96 1013.8
20260505091558 56 131 0.9 3.5 0.13 1.07 0.83 96 1013.5
20260505090058 55 92 0.9 1.7 0.13 1.07 0.83 96 1013.4
20260505084558 56 271 0.0 3.5 0.06 0.99 0.76 95 1013.5
20260505083103 57 100 3.5 6.1 0.01 0.94 0.71 94 1013.2
20260505081557 56 90 0.0 3.5 0.01 0.94 0.71 96 1013.2
20260505080111 57 286 0.0 2.6 0.00 0.94 0.70 96 1013.1
20260505074555 57 246 0.0 0.9 0.00 0.94 0.70 96 1013.1
20260505073100 56 82 0.0 1.7 0.00 0.94 0.70 96 1013.0
20260505071553 56 109 0.0 0.0 0.00 0.94 0.70 96 1013.0
20260505070054 56 101 0.0 1.7 0.00 0.94 0.70 96 1013.0
20260505064600 56 101 0.0 1.7 0.00 0.94 0.70 96 1012.8
20260505063100 56 81 0.9 3.5 0.01 0.94 0.70 96 1012.8
20260505061556 57 125 1.7 4.3 0.15 0.94 0.70 96 1012.5
20260505060051 56 3 0.9 2.6 0.15 0.94 0.70 96 1012.3
20260505054548 55 81 0.0 3.5 0.15 0.94 0.70 96 1012.2
20260505053109 55 25 0.9 2.6 0.14 0.93 0.69 95 1012.1
20260505051545 56 272 0.9 5.2 0.00 0.79 0.55 94 1012.2
20260505041545 56 57 0.0 3.5 0.00 0.79 0.55 92 1011.8
20260505040043 56 68 2.6 5.2 0.00 0.79 0.55 92 1011.7
20260505034552 55 292 0.9 3.5 0.00 0.79 0.55 93 1011.9
20260505033050 55 333 0.0 3.5 0.00 0.79 0.55 95 1011.9
20260505031541 55 262 0.9 1.7 0.00 0.79 0.55 94 1012.2
20260505030039 55 50 0.9 5.2 0.00 0.79 0.55 93 1012.1
20260505024537 56 60 0.9 2.6 0.01 0.79 0.55 92 1012.3
20260505023038 56 48 2.6 7.8 0.07 0.79 0.55 91 1012.3
20260505021533 54 39 1.7 6.1 0.20 0.79 0.55 95 1012.5
20260505020031 54 56 0.0 7.0 0.28 0.79 0.55 94 1013.0
20260505014530 54 17 0.0 1.7 0.31 0.78 0.54 96 1013.1
20260505013026 54 318 0.0 1.7 0.27 0.71 0.47 95 1013.5
20260505011544 54 338 0.0 4.3 0.18 0.57 0.35 94 1013.9
20260505010022 54 323 0.0 5.2 0.15 0.50 0.26 92 1013.8